Regional Weather Roundup
Issued by NWS

Home | Current Version | Previous Version | Text Only | Print | Product List | Glossary Off
Versions: 1 2 3 4 5 6 7 8 9 10 11 12 13 14 15 16 17 18 19 20 21 22 23 24 25 26 27 28 29 30 31 32 33 34 35 36 37 38 39 40 41 42 43 44 45 46 47 48 49 50

000
ASUS43 KDMX 182101
RWRIA

WEATHER ROUNDUP FOR IOWA
NATIONAL WEATHER SERVICE DES MOINES IA
400 PM CDT WED APR 18 2018

NOTE: "FAIR" INDICATES FEW OR NO CLOUDS BELOW 12,000 FEET WITH NO
SIGNIFICANT WEATHER AND/OR OBSTRUCTIONS TO VISIBILITY.

* - THESE STATIONS ARE NOT NWS STATIONS...THUS NOT UNDER NWS
QUALITY CONTROL.  THEY ALSO DO NOT REPORT WEATHER SUCH
AS PRECIPITATION OR FOG.

IAZ001>003-012>014-020>022-031>034-043>046-182200-
   NORTHWEST IOWA

CITY           SKY/WX    TMP DP  RH WIND       PRES   REMARKS
CARROLL *      PTSUNNY   36  30  80 NW20      30.03R WCI  25
CHEROKEE *     LGT SNOW  34  32  93 N13       30.06R WCI  25
DENISON *      CLOUDY    36  30  80 N17       30.07R WCI  25
LE MARS *      CLOUDY    36  32  87 NW12G20   30.09R WCI  27
ORANGE CITY *  LGT SNOW  36  34  93 NW8       30.07R WCI  29
SHELDON *      LGT SNOW  32  32 100 N14G20    30.05R WCI  22
SIOUX CITY     CLOUDY    37  30  75 NW21G29   30.10R WCI  26
SPENCER        LGT SNOW  34  30  85 NW16      30.04R FOG     WCI  24
STORM LAKE *   LGT RAIN  32  28  86 N18       30.04R WCI  20
$$

IAZ055>058-069>071-079>083-090>094-182200-
   SOUTHWEST IOWA

CITY           SKY/WX    TMP DP  RH WIND       PRES   REMARKS
ATLANTIC *     CLOUDY    37  30  75 N16G23    30.04R WCI  28
AUDUBON *      CLOUDY    36  28  75 N16G23    30.04R WCI  26
CLARINDA *     CLOUDY    39  28  65 NW18      30.07R WCI  30
COUNCIL BLFS * CLOUDY    39  30  70 NW22G29   30.06R WCI  29
CRESTON *      FLURRIES  36  28  75 NW20G26   30.02R WCI  25
HARLAN  *      CLOUDY    36  30  80 N20       30.08R WCI  25
LAMONI         CLOUDY    36  26  67 NW20G29   30.00R WCI  25
RED OAK *      CLOUDY    41  30  65 NW15G22   30.05S
SHENANDOAH *   CLOUDY    37  30  75 N20       30.08R WCI  27
$$

IAZ047>049-059>061-072>074-084-182200-
   CENTRAL IOWA

CITY           SKY/WX    TMP DP  RH WIND       PRES   REMARKS
AMES           FLURRIES  33  29  85 N12       30.00R WCI  24
ANKENY *       LGT SNOW  34  30  86 N15G24    30.01R WCI  24
BOONE *        FLURRIES  32  30  93 MISG      29.99R
CHARITON *     MIX PCPN  34  28  80 NW15G23   29.97R WCI  24
DES MOINES     FLURRIES  34  29  82 N10       30.00R WCI  26
GRINNELL*      FLURRIES  32  30  92 N14       29.96R WCI  22
KNOXVILLE *    MIX PCPN  34  30  86 NW14      29.96R WCI  24
MARSHALLTOWN   LGT SNOW  32  30  92 N13       29.96R FOG     WCI  22
NEWTON *       LGT SNOW  32  30  93 N15       29.98R WCI  22
PELLA *        LGT SNOW  34  31  90 NW13      29.98R WCI  25
$$

IAZ004>006-015-016-023>025-035-036-182200-
   NORTH CENTRAL IOWA

CITY           SKY/WX    TMP DP  RH WIND       PRES   REMARKS
ALGONA *         N/A     32  30  93 N13G21    30.01R WCI  22
CLARION *      MOSUNNY   32  28  86 NW14      29.99R FOG     WCI  22
ESTHERVILLE    LGT SNOW  32  29  88 N15       30.02R VSB 1   WCI  22
FORT DODGE *   LGT SNOW  34  29  82 N9        30.01R WCI  27
MASON CITY     LGT SNOW  32  29  88 N9        29.99R FOG     WCI  24
FOREST CITY *  LGT SNOW  32  32 100 N12       29.99R WCI  23
WEBSTER CITY * FLURRIES  32  30  93 NW15      29.98R WCI  22
IOWA FALLS *   FLURRIES  33  29  86 N8        29.99R WCI  26
$$

IAZ007>011-017>019-026>030-037>042-050>054-066-182200-
   NORTHEAST IOWA

CITY           SKY/WX    TMP DP  RH WIND       PRES   REMARKS
CEDAR RAPIDS   LGT SNOW  32  30  92 N15       29.91R FOG     WCI  22
CHARLES CITY * LGT SNOW  32  32 100 N15       29.96R WCI  22
CLINTON *      MIX PCPN  33  32  96 N14       29.88R FOG     WCI  23
DECORAH *      SNOW      30  30 100 N10       29.93R VSB 1/2 WCI  21
DUBUQUE        CLOUDY    30  28  92 N14       29.89R FOG     WCI  19
MONTICELLO *   MIX PCPN  32  30  93 N12G17    29.91R WCI  23
OELWEIN *      FLURRIES  30  30 100 N10       29.94S WCI  21
WATERLOO       LGT SNOW  31  29  92 N14       29.96R VSB 1   WCI  21
$$

IAZ064-065-067-068-078-182200-
   EAST CENTRAL IOWA

CITY           SKY/WX    TMP DP  RH WIND       PRES   REMARKS
DAVENPORT      LGT SNOW  33  31  92 N12       29.88R VSB 1   WCI  24
IOWA CITY      LGT SNOW  33  30  88 N12       29.92R FOG     WCI  24
MT. PLEASANT * CLOUDY    34  32  93 NW12      29.91R FOG     WCI  25
MUSCATINE *    LGT RAIN  36  34  93 N8        29.90R WCI  29
QUAD CITIES    CLOUDY    35  33  92 N7        29.86R FOG     WCI  29
$$

IAZ062-063-075>077-085>089-095>099-182200-
   SOUTHEAST IOWA

CITY           SKY/WX    TMP DP  RH WIND       PRES   REMARKS
BURLINGTON     CLOUDY    37  31  78 W14G22    29.88R WCI  28
FAIRFIELD *    CLOUDY    36  32  87 NW16      29.92R WCI  26
FORT MADISON * CLOUDY    37  32  81 W17       29.90R WCI  28
KEOKUK *       CLOUDY    37  30  75 W17G26    29.90R WCI  28
OSKALOOSA *    CLOUDY    34  31  90 N15       29.94R WCI  24
CENTERVILLE *    N/A     36  32  87 W17G23    29.97R WCI  25
OTTUMWA        CLOUDY    35  30  82 NW15      29.94R WCI  25
WASHINGTON *   CLOUDY    36  36 100 NW12      29.92R WCI  27
$$

ABBREVIATIONS USED IN REMARKS
   TC - TEMPERATURES IN CELSIUS
  WCI - WIND CHILL INDEX
   HX - HEAT INDEX
  VSB - VISIBILITY
$$





USA.gov is the U.S. government's official web portal to all federal, state and local government web resources and services.